This demonstration page uses our WeatherBlox Daily Observations layout. Learn more.

Left ArrowRight Arrow

41.86663, -103.66717

Hourly Observations for March 29, 2021

Temp ( °F °C ) Dew Point ( °F °C ) Humidity (%) Winds ( mph kmh ) Pressure ( in mb ) Visibility ( mi km ) Precip ( " mm )
12:53 am 00:53 Clear 53 11.7 23 -5 31 31 SSW 14 22 29.72 1007 10 16.0934 0 0
1:53 am 01:53 Clear 50 10 24 -4.4 36 36 SW 10 17 29.69 1005 10 16.0934 0 0
2:53 am 02:53 Clear 54 12.2 23 -5 30 30 WSW 17 28 29.62 1003 10 16.0934 0 0
3:53 am 03:53 Clear 55 12.8 20 -6.7 25 25 WSW 20 31 29.58 1002 10 16.0934 0 0
4:53 am 04:53 Clear 55 12.8 19 -7.2 24 24 W 18 30 29.54 1000 10 16.0934 0 0
5:53 am 05:53 Clear 53 11.7 20 -6.7 27 27 W 9 15 29.53 1000 10 16.0934 0 0
6:53 am 06:53 Sunny 51 10.6 20 -6.7 29 29 W 5 7 29.51 999 10 16.0934 0 0
7:53 am 07:53 Sunny 59 15 21 -6.1 23 23 W 23 37 29.47 998 10 16.0934 0 0
8:53 am 08:53 Sunny 64 17.8 20 -6.7 18 18 WSW 28 44 29.47 998 10 16.0934 0 0
9:53 am 09:53 Sunny 67 19.4 21 -6.1 17 17 WSW 23 37 29.43 997 10 16.0934 0 0
10:53 am 10:53 Sunny 69 20.6 21 -6.1 16 16 WSW 31 50 29.39 995 10 16.0934 0 0
11:53 am 11:53 Sunny 71 21.7 18 -7.8 13 13 W 32 52 29.37 995 10 16.0934 0 0
12:53 pm 12:53 Sunny 72 22.2 17 -8.3 12 12 W 31 50 29.36 994 10 16.0934 0 0
1:53 pm 13:53 Sunny 74 23.3 19 -7.2 12 12 W 24 39 29.36 994 10 16.0934 0 0
2:53 pm 14:53 Sunny 70 21.1 20 -6.7 15 15 NW 29 46 29.37 995 10 16.0934 0 0
3:31 pm 15:31 Mostly Sunny 60 15.6 28 -2.2 30 30 N 24 39 29.38 995 10 16.0934 0 0
3:53 pm 15:53 Sunny 56 13.3 28 -2.2 34 34 NNW 37 59 29.45 997 10 16.0934 0 0
4:53 pm 16:53 Partly Cloudy 47 8.3 23 -5 39 39 N 33 54 29.59 1002 10 16.0934 0 0
5:53 pm 17:53 Sunny 45 7 N/A N/A NNW 38 61 29.66 1005 10 16.0934 0 0
6:53 pm 18:53 Sunny 36 2 N/A N/A NW 28 44 29.73 1007 10 16.0934 0 0
7:53 pm 19:53 Clear 36 2 N/A N/A NW 25 41 29.72 1007 10 16.0934 0 0
8:53 pm 20:53 Partly Cloudy 37 3 N/A N/A NW 23 37 29.73 1007 10 16.0934 0 0
9:53 pm 21:53 Mostly Clear 36 2 N/A N/A NNW 30 48 29.73 1007 10 16.0934 0 0
10:53 pm 22:53 Clear 36 2 N/A N/A NNW 18 30 29.81 1009 10 16.0934 0 0
11:53 pm 23:53 Clear 34 1 N/A N/A NNW 13 20 29.85 1011 10 16.0934 0 0

Powered by AerisWeather